Date String (YYYY-MM-DD hh:mm:ss) UTC,Instrument flags,absolute air pressure of the measurement (hPa),sample flow rate (lpm),inlet stack bypass flow (lpm),air temperature of the measurement (°C),ambient temperature measured by the external sensor (°C),aerosol sample conditioner tube jacket temperature (°C),OPC LED temperature (°C),internal box temperature (°C),relative humidity of the measurement (%),span deviation,mass concentration of particles derived from Lorenz-Mie calculation of OPC scattering (μg/m³),mass concentration of particles derived from Lorenz-Mie calculation of OPC scattering (μg/m³),mass concentration of particles derived from Lorenz-Mie calculation of OPC scattering (μg/m³)
DateTimeUTC,F1_M11,P_M11,Q1_M11,Q2_M11,T1_M11,T2_M11,T3_M11,T4_M11,T5_M11,U1_M11,ZSPAN_M11,X0_M11,X2_M11,X1_M11
2024-01-29 21:00:00,SystemResetWarning,0835.8,5.01,000.00,026.1,025.0,000.0,034.2,027.5,12.8,0000.0,0007.06,0001.36,0000.73
2024-01-29 21:01:00,SystemResetWarning,0835.8,5.01,000.00,026.1,025.1,000.0,034.2,027.5,13.0,0000.0,0006.69,0001.34,0000.71
2024-01-29 21:02:00,SystemResetWarning,0835.8,4.99,000.00,026.1,025.2,000.0,034.2,027.6,13.1,0000.0,0006.98,0001.30,0000.71
2024-01-29 21:03:00,SystemResetWarning,0835.8,4.99,000.00,026.1,025.3,000.0,034.3,027.6,13.1,0000.0,0007.93,0001.33,0000.73
2024-01-29 21:04:00,SystemResetWarning,0835.8,5.01,000.00,026.2,025.3,000.0,034.3,027.7,13.0,0000.0,0007.86,0001.34,0000.75
2024-01-29 21:05:00,SystemResetWarning,0835.8,5.01,000.00,026.2,025.4,000.0,034.3,027.7,12.9,0000.0,0008.20,0001.39,0000.77
2024-01-29 21:06:00,SystemResetWarning,0835.8,4.98,000.00,026.2,025.5,000.0,034.3,027.7,12.8,0000.0,0008.66,0001.47,0000.80
2024-01-29 21:07:00,SystemResetWarning,0835.8,4.99,000.00,026.3,025.5,000.0,034.3,027.8,12.8,0000.0,0008.69,0001.54,0000.88
2024-01-29 21:08:00,SystemResetWarning,0835.8,5.01,000.00,026.3,025.5,000.0,034.4,027.8,12.8,0000.0,0009.01,0001.66,0000.97
2024-01-29 21:09:00,SystemResetWarning,0835.8,5.01,000.00,026.3,025.6,000.0,034.4,027.8,12.9,0000.0,0009.30,0001.75,0001.05
2024-01-29 21:10:00,SystemResetWarning,0835.8,4.99,000.00,026.4,025.6,000.0,034.4,027.9,12.8,0000.0,0009.62,0001.85,0001.13
2024-01-29 21:11:00,SystemResetWarning,0835.8,4.99,000.00,026.4,025.7,000.0,034.4,027.9,12.9,0000.0,0009.92,0001.98,0001.22
2024-01-29 21:12:00,SystemResetWarning,0835.8,4.99,000.00,026.4,024.6,000.0,034.5,027.9,12.7,0000.0,0009.65,0002.04,0001.29
2024-01-29 21:13:00,SystemResetWarning,0835.7,5.00,000.00,026.3,023.0,000.0,034.4,027.7,12.7,0000.0,0010.47,0002.16,0001.37
2024-01-29 21:14:00,SystemResetWarning,0835.7,5.01,000.00,026.2,022.7,000.0,034.4,027.5,12.9,0000.0,0011.37,0002.26,0001.44
2024-01-29 21:15:00,SystemResetWarning,0835.7,5.01,000.00,026.1,023.0,000.0,034.4,027.1,12.8,0000.0,0010.91,0002.34,0001.54
2024-01-29 21:16:00,SystemResetWarning,0835.6,5.00,000.00,026.0,023.3,000.0,034.3,027.0,12.9,0000.0,0011.12,0002.47,0001.64
2024-01-29 21:17:00,SystemResetWarning,0835.6,4.99,000.00,026.0,023.7,000.0,034.3,027.1,12.8,0000.0,0010.76,0002.59,0001.77
2024-01-29 21:18:00,SystemResetWarning,0835.7,5.00,000.00,026.0,024.0,000.0,034.3,027.2,12.9,0000.0,0011.31,0002.74,0001.87
2024-01-29 21:19:00,SystemResetWarning,0835.8,5.00,000.00,026.0,024.2,000.0,034.2,027.3,13.0,0000.0,0011.18,0002.78,0001.95
2024-01-29 21:20:00,SystemResetWarning,0835.7,5.00,000.00,026.0,024.5,000.0,034.2,027.3,12.9,0000.0,0010.93,0002.83,0002.02
2024-01-29 21:21:00,SystemResetWarning,0835.7,5.00,000.00,026.0,024.6,000.0,034.2,027.4,12.8,0000.0,0012.01,0002.89,0002.09
2024-01-29 21:22:00,SystemResetWarning,0835.7,4.99,000.00,026.0,024.8,000.0,034.2,027.4,12.8,0000.0,0011.48,0002.95,0002.19
2024-01-29 21:23:00,SystemResetWarning,0835.7,4.99,000.00,026.1,024.9,000.0,034.2,027.5,12.9,0000.0,0011.46,0003.10,0002.34
2024-01-29 21:24:00,SystemResetWarning,0835.8,5.00,000.00,026.1,025.1,000.0,034.2,027.6,12.7,0000.0,0012.04,0003.25,0002.52
2024-01-29 21:25:00,SystemResetWarning,0835.8,5.00,000.00,026.1,025.2,000.0,034.3,027.6,12.7,0000.0,0010.43,0003.31,0002.67
2024-01-29 21:26:00,SystemResetWarning,0835.8,5.01,000.00,026.2,025.3,000.0,034.3,027.6,12.8,0000.0,0010.11,0003.38,0002.78
2024-01-29 21:27:00,SystemResetWarning,0835.7,5.00,000.00,026.2,025.3,000.0,034.3,027.7,12.8,0000.0,0010.59,0003.45,0002.92
2024-01-29 21:28:00,SystemResetWarning,0835.8,5.01,000.00,026.2,025.4,000.0,034.3,027.7,12.7,0000.0,0010.51,0003.50,0003.03
2024-01-29 21:29:00,SystemResetWarning,0835.7,5.01,000.00,026.3,025.5,000.0,034.3,027.8,12.6,0000.0,0010.09,0003.54,0003.12
2024-01-29 21:30:00,SystemResetWarning,0835.8,5.00,000.00,026.3,025.5,000.0,034.3,027.8,12.6,0000.0,0010.38,0003.61,0003.17
2024-01-29 21:31:00,SystemResetWarning,0835.8,5.00,000.00,026.3,025.6,000.0,034.4,027.8,12.4,0000.0,0010.56,0003.71,0003.24
2024-01-29 21:32:00,SystemResetWarning,0835.8,5.00,000.00,026.4,025.6,000.0,034.4,027.9,12.2,0000.0,0009.84,0003.83,0003.31
2024-01-29 21:33:00,SystemResetWarning,0835.8,5.00,000.00,026.4,025.7,000.0,034.4,027.9,12.1,0000.0,0009.66,0003.93,0003.37
2024-01-29 21:34:00,SystemResetWarning,0835.8,5.00,000.00,026.4,025.7,000.0,034.4,027.9,12.1,0000.0,0009.59,0003.94,0003.39
2024-01-29 21:35:00,SystemResetWarning,0835.8,5.00,000.00,026.4,025.8,000.0,034.5,027.9,12.2,0000.0,0010.21,0003.94,0003.40
2024-01-29 21:36:00,SystemResetWarning,0835.8,5.00,000.00,026.5,025.8,000.0,034.5,028.0,12.2,0000.0,0010.03,0003.98,0003.41
2024-01-29 21:37:00,SystemResetWarning,0835.8,5.00,000.00,026.5,025.8,000.0,034.5,028.0,12.1,0000.0,0010.13,0004.04,0003.44
2024-01-29 21:38:00,SystemResetWarning,0835.8,4.99,000.00,026.5,025.0,000.0,034.5,028.0,12.1,0000.0,0010.12,0004.11,0003.44
2024-01-29 21:39:00,SystemResetWarning,0835.8,5.02,000.00,026.4,023.1,000.0,034.5,027.8,12.0,0000.0,0009.55,0004.12,0003.43
2024-01-29 21:40:00,SystemResetWarning,0835.8,5.01,000.00,026.4,022.7,000.0,034.5,027.6,12.1,0000.0,0009.89,0004.08,0003.37
2024-01-29 21:41:00,SystemResetWarning,0835.8,4.99,000.00,026.2,023.0,000.0,034.4,027.2,12.2,0000.0,0010.01,0003.98,0003.28
2024-01-29 21:42:00,SystemResetWarning,0835.8,5.00,000.00,026.1,023.3,000.0,034.4,027.1,12.2,0000.0,0010.08,0003.85,0003.17
2024-01-29 21:43:00,SystemResetWarning,0835.7,5.00,000.00,026.1,023.7,000.0,034.4,027.2,12.3,0000.0,0010.68,0003.68,0003.02
2024-01-29 21:44:00,SystemResetWarning,0835.7,4.99,000.00,026.1,024.0,000.0,034.3,027.3,12.3,0000.0,0010.80,0003.55,0002.81
2024-01-29 21:45:00,SystemResetWarning,0835.7,5.00,000.00,026.1,024.3,000.0,034.3,027.3,12.3,0000.0,0011.72,0003.45,0002.63
2024-01-29 21:46:00,SystemResetWarning,0835.7,5.00,000.00,026.1,024.5,000.0,034.3,027.4,12.4,0000.0,0010.96,0003.36,0002.47
2024-01-29 21:47:00,SystemResetWarning,0835.8,5.00,000.00,026.1,024.7,000.0,034.3,027.5,12.5,0000.0,0010.63,0003.22,0002.29
2024-01-29 21:48:00,SystemResetWarning,0835.7,5.00,000.00,026.1,024.9,000.0,034.3,027.5,12.5,0000.0,0010.55,0003.06,0002.10
2024-01-29 21:49:00,SystemResetWarning,0835.7,5.00,000.00,026.2,025.0,000.0,034.3,027.6,12.3,0000.0,0010.24,0002.72,0001.90
2024-01-29 21:50:00,SystemResetWarning,0835.7,5.00,000.00,026.2,025.1,000.0,034.3,027.7,12.3,0000.0,0010.06,0002.50,0001.69
2024-01-29 21:51:00,SystemResetWarning,0835.7,5.00,000.00,026.2,025.3,000.0,034.3,027.7,12.4,0000.0,0009.67,0002.34,0001.57
2024-01-29 21:52:00,SystemResetWarning,0835.7,4.99,000.00,026.3,025.4,000.0,034.4,027.8,12.4,0000.0,0008.91,0002.21,0001.50
2024-01-29 21:53:00,SystemResetWarning,0835.7,5.00,000.00,026.3,025.5,000.0,034.4,027.8,12.4,0000.0,0008.55,0002.16,0001.47
2024-01-29 21:54:00,SystemResetWarning,0835.8,4.99,000.00,026.3,025.5,000.0,034.4,027.9,12.5,0000.0,0008.20,0002.13,0001.45
2024-01-29 21:55:00,SystemResetWarning,0835.8,4.99,000.00,026.4,024.9,000.0,034.4,027.9,12.4,0000.0,0007.83,0002.06,0001.42
2024-01-29 21:56:00,SystemResetWarning,0835.7,5.00,000.00,026.3,023.1,000.0,034.4,027.7,12.5,0000.0,0006.52,0001.99,0001.37
2024-01-29 21:57:00,SystemResetWarning,0835.8,5.00,000.00,026.2,022.7,000.0,034.3,027.6,12.6,0000.0,0004.93,0001.85,0001.29
2024-01-29 21:58:00,SystemResetWarning,0835.7,5.02,000.00,026.1,022.9,000.0,034.3,027.1,12.6,0000.0,0004.87,0001.76,0001.22
2024-01-29 21:59:00,SystemResetWarning,0835.7,5.00,000.00,026.0,023.3,000.0,034.3,027.1,12.8,0000.0,0005.19,0001.69,0001.15
